Погода в Буровом

Россия / Красноярский край     57°16′42″N   94°48′46″E
темп.,
°C
ветер,
м/с
пор.,
м/с
влажн.,
%
обл.,
%
осадки,
мм/ч
давл.,
гПа
погр.,
м
30 ноября, вт
вт3001:00−5зюз31192100 1.4 1026715
04:00−5зюз4108699 0.0 1025572
07:00−5зюз4128395 0.0 1024565
10:00−4зюз51376100 0.0 1022708
13:00−3зюз51569100 0.0 1020817
16:00−3зюз6146996 0.0 1019914
19:00−4зюз51469100 0.0 1019814
22:00−4зюз51474100 0.0 1019794
1 декабря, ср
ср101:00−5зюз61582100 0.1 1019822
04:00−5з61589100 0.1 1019906
07:00−5з61487100 0.3 1019905
10:00−6з51286100 0.1 1022950
13:00−5зсз51185100 0.1 10241029
16:00−6зсз41086100 0.1 1027805
19:00−7зсз2692100 0.1 1028414
22:00−7юз0297100 0.3 1028117
2 декабря, чт
чт201:00−7ююз1297100 1.1 1027142
04:00−7ююз2893100 0.4 1025407
07:00−6ююз31083100 0.4 1023426
10:00−4зюз31375100 0.0 1021632
13:00−3зюз51373100 0.0 1020719
16:00−3з41177100 0.0 1020515
19:00−4зюз31078100 0.0 1020380
22:00−4зюз3879100 0.0 1020276
3 декабря, пт
пт301:00−4зюз2107781 0.0 1019298
04:00−8ю1190100 0.0 101811
07:00−10ю2191100 0.0 101713
10:00−9ююв218897 0.0 101625
13:00−1ю25745 0.0 1013131
16:00−5ююв22835 0.0 101124
19:00−4ю267265 0.0 100882
22:00+2юз51750100 0.0 1006503
4 декабря, сб
сб401:000юз51656100 0.1 10061002
04:00+1зюз61594100 0.6 10061164
07:00+1зюз6158398 0.8 10091406
10:00−2зюз6147599 0.1 10131206
13:00−3зюз61675100 0.1 10151315
16:00−4зюз61481100 0.0 10161286
19:00−5зюз61380100 0.1 10181223
22:00−6зюз61381100 0.0 10201161